• Join FlightAware (Why Join?)
  • Login
  • US Flag 
08:56AM EST


 

Airport Tracker/Info


-or-


 

Live Flight TrackerFlight Track Log ✈ OPT429 ✈ 08-Jul-2014 ✈ KCHA - KMSY

Flight Track Log - Related Links

Times and Time Zones

All times are in EDT time to prevent confusion due to time zone crossing. See the OPT429 flight status page for this flight to view local times or setup timezone preferences in your user account.

Time Position Orientation Groundspeed Altitude Reporting Facility
EDT Latitude Longitude Course Direction KTS MPH feet Rate Location/Type
06:58PM 34.9114 -85.2217 227° Southwest 243 280 5,600  Level Atlanta Center
06:59PM 34.8425 -85.2258 183° South 253 291 9,100 3,250 Climbing Atlanta Center
07:00PM 34.7736 -85.2297 183° South 253 291 12,100 2,600 Climbing Atlanta Center
07:01PM 34.7047 -85.2289 179° South 253 291 14,300 2,200 Climbing Atlanta Center
07:02PM 34.7112 -85.5833 227° Southwest  Level FlightAware Approximate
07:02PM 34.6356 -85.2633 202° Southwest 258 297 16,500  Level Atlanta Center
07:03PM 34.5867 -85.3433 233° Southwest 263 303 18,600 1,750 Climbing Atlanta Center
07:04PM 34.5358 -85.4231 232° Southwest 284 327 20,000 700 Climbing Atlanta Center
07:05PM 34.4658 -85.5025 223° Southwest 318 366 20,000  Level Atlanta Center
07:06PM 34.3942 -85.5744 220° Southwest 337 388 20,000 850 Level Atlanta Center
07:07PM 34.3264 -85.6411 219° Southwest 342 394 21,700 2,150 Climbing Atlanta Center
07:08PM 34.2589 -85.7075 219° Southwest 340 391 24,300 2,100 Climbing Atlanta Center
07:09PM 34.1933 -85.7717 219° Southwest 323 372 25,900 1,550 Climbing Atlanta Center
07:10PM 34.1131 -85.8428 216° Southwest 323 372 27,400 1,050 Climbing Atlanta Center
07:11PM 34.0325 -85.9164 217° Southwest 343 395 28,000 300 Climbing Atlanta Center
07:12PM 33.9475 -86.0094 222° Southwest 379 436 28,000  Level Atlanta Center
07:13PM 33.8953 -86.1386 244° Southwest 410 472 28,000 600 Level Atlanta Center
07:14PM 33.8594 -86.2753 253° West 416 479 29,200 2,050 Climbing Atlanta Center
07:15PM 33.8194 -86.4042 250° West 426 490 32,100 2,300 Climbing Atlanta Center
07:16PM 33.7839 -86.5206 250° West 398 458 33,800 1,450 Climbing Atlanta Center
07:17PM 33.7481 -86.6394 250° West 385 443 35,000 1,200 Climbing Atlanta Center
07:18PM 33.7100 -86.7583 249° West 385 443 36,200 1,150 Climbing Atlanta Center
07:19PM 33.6739 -86.8794 250° West 385 443 37,300 1,100 Climbing Atlanta Center
07:20PM 33.6128 -86.9872 236° Southwest 385 443 38,400 1,000 Climbing Atlanta Center
07:21PM 33.5436 -87.0869 230° Southwest 385 443 39,300 700 Climbing Atlanta Center
07:22PM 33.4744 -87.1867 230° Southwest 395 455 39,800 550 Climbing Atlanta Center
07:23PM 33.4047 -87.2911 231° Southwest 395 455 40,400 550 Climbing Atlanta Center
07:24PM 33.3353 -87.3978 232° Southwest 406 467 40,900 451 Climbing Atlanta Center
07:26PM 33.2081 -87.5906 232° Southwest 408 470 41,700 446 Climbing Memphis Center
07:27PM 33.1361 -87.6978 231° Southwest 411 473 42,200 435 Climbing Memphis Center
07:28PM 33.0631 -87.8036 231° Southwest 411 473 42,600 387 Climbing Memphis Center
07:29PM 32.9808 -87.9269 232° Southwest 411 473 43,000 194 Climbing Memphis Center
07:30PM 32.9078 -88.0325 231° Southwest 412 474 43,000  Level Memphis Center
07:31PM 32.8344 -88.1422 232° Southwest 421 484 43,000  Level Memphis Center
07:32PM 32.7594 -88.2503 230° Southwest 423 487 43,000  Level Memphis Center
07:33PM 32.6864 -88.3583 231° Southwest 423 487 43,000 -484 Level Memphis Center
07:34PM 32.6114 -88.4650 230° Southwest 423 487 42,000 -1,065 Descending Memphis Center
07:35PM 32.5228 -88.5950 231° Southwest 423 487 40,800 -1,016 Descending Memphis Center
07:36PM 32.4489 -88.7017 231° Southwest 423 487 39,900 -919 Descending Memphis Center
07:37PM 32.3725 -88.8089 230° Southwest 423 487 38,900 -919 Descending Memphis Center
07:38PM 32.2806 -88.8983 219° Southwest 428 493 38,000 -927 Descending Memphis Center
07:39PM 32.1875 -88.9889 219° Southwest 430 495 37,000 -1,024 Descending Memphis Center
07:40PM 32.0747 -89.0978 219° Southwest 434 499 35,900 -968 Descending Memphis Center
07:41PM 31.9806 -89.1892 219° Southwest 435 501 35,000 -871 Descending Memphis Center
07:42PM 31.8856 -89.2800 219° Southwest 438 504 34,100 -1,403 Descending Memphis Center
07:43PM 31.7917 -89.3714 220° Southwest 438 504 32,100 -2,274 Descending Memphis Center
07:44PM 31.6886 -89.4431 211° Southwest 438 504 29,400 -2,000 Descending Memphis Center
07:45PM 31.5761 -89.5186 210° Southwest 413 475 27,800 -1,594 Descending Houston Center
07:46PM 31.4711 -89.5889 210° Southwest 406 467 26,000 -1,707 Descending Houston Center
07:47PM 31.3736 -89.6536 210° Southwest 405 466 24,300 -1,597 Descending Houston Center
07:48PM 31.2792 -89.7164 210° Southwest 396 456 22,700 -1,548 Descending Houston Center
07:49PM 31.1861 -89.7781 210° Southwest 391 450 21,100 -1,500 Descending Houston Center
07:51PM 31.0953 -89.8383 210° Southwest 382 440 19,600 -1,548 Descending Houston Center
07:52PM 30.9894 -89.9075 209° Southwest 365 420 17,900 -1,500 Descending Houston Center
07:52PM 30.9400 -89.9408 210° Southwest 360 414 17,200 -1,258 Descending Houston Center
07:53PM 30.9042 -89.9636 209° Southwest 358 412 16,600 -1,375 Descending Houston Center
07:53PM 30.8764 -89.9825 210° Southwest 336 387 16,100 -1,355 Descending Houston Center
07:54PM 30.8217 -90.0119 205° Southwest 337 388 15,200 -1,456 Descending Houston Center
07:55PM 30.7217 -90.0375 192° South 327 376 13,600 -1,574 Descending Houston Center
07:56PM 30.6367 -90.0628 194° South 316 364 12,000 -1,525 Descending Houston Center
07:57PM 30.5600 -90.0856 194° South 285 328 10,500 -1,440 Descending Houston Center
07:58PM 30.4811 -90.1064 193° South 277 319 9,000 -1,381 Descending Houston Center
07:59PM 30.4122 -90.1272 195° South 264 304 7,600 -1,405 Descending Houston Center
08:00PM 30.3531 -90.1447 194° South 250 288 6,400 -1,355 Descending Houston Center
08:00PM 30.3447 -90.1450 182° South 255 293 6,200 -1,377 Descending Houston Center
08:01PM 30.2847 -90.1619 194° South 252 290 5,000 -1,355 Descending Houston Center
08:01PM 30.2767 -90.1647 197° South 253 291 4,800 -1,279 Descending Houston Center
08:02PM 30.2142 -90.1817 193° South 254 292 3,700 -1,279 Descending Houston Center
08:02PM 30.2089 -90.1844 204° Southwest 253 291 3,500 -1,300 Descending Houston Center
08:03PM 30.1436 -90.1992 191° South 242 278 2,400 -1,258 Descending Houston Center
08:03PM 30.1300 -90.2031 194° South 248 285 2,200 -492 Descending Houston Center
08:04PM 30.0836 -90.2208 198° South 231 266 1,900 -194 Descending Houston Center
08:04PM 30.0700 -90.2231 188° South 237 273 2,000 -885 Climbing Houston Center
08:05PM 30.0403 -90.2344 198° South 135 155 1,000 -1,258 Descending Houston Center
08:05PM 30.0344 -90.2350 185° South 169 194 700 -800 Descending Houston Center
08:06PM 30.0114 -90.2428 196° South 100 115 200 -484 Descending Houston Center
08:06PM 30.0008 -90.2472 200° South 142 163 200  Level Houston Center
08:08PM 29.9833 -90.2500 190° South  Level FlightAware Approximate
08:15PM 29.9933 -90.2590 190° South  Level Estimated
08:16PM 29.9933 -90.2590 190° South  Level Estimated